Find ScatSat

NORAD ID: 41790 Int'l Des: 2016-059 Owner: ISRO Country: IN operational
LEOCIRCULARRETROGRADESSO

实时位置

正在加载3D地球...

关于 ScatSat

正在加载描述...

即将过境

Passes for default location (London). Set your location on the main map for personalized predictions.

高度历史

Loading altitude history...

两行轨道根数

1 41790U 16059H 26119.72089227 .00001438 00000-0 19528-3 0 9992
2 41790 98.1219 182.9838 0055599 45.4709 315.1024 14.79419864 94422
Epoch: Apr 29, 2026 • Age: 10 hours

当前状态

高度 597.5 km
速度 7.59 km/s
星下点 36.88°N, 88.89°W
发射日期 Sep 26, 2016
运行时间 9.5 years
类型 other

技术详情

分类 Payload
质量 370.00 kg
干质量 350.00 kg
总质量 370.00 kg
长度 2.70 m
直径 1.00 m
跨度 4.00 m
形状 Box + 2 pan
制造商 ISAC
平台类型 SSB-2
阶段状态 In Orbit
所有者/国家 ISRO/IN

Most Searched